METLOCID,DATE_TIME,AVG_RH,STDEDV_RH,MIN_RH,MAX_RH,N_RH,N_COMMENTS
FRLM,12/7/93,66.09491525,6.518024709,59.02,85.67,59,0
FRLM,12/8/93,72.95173611,3.944564345,65.35,86.11,144,0
FRLM,12/9/93,58.76527778,6.550758558,46.63,70.4,144,0
FRLM,12/10/93,62.04229167,3.573963094,54.05,70.02,144,0
FRLM,12/11/93,62.96305556,8.042268517,45.86,75.45,144,0
FRLM,12/12/93,81.64861111,14.63736896,54.06,99.99,144,12
FRLM,12/13/93,72.00861111,5.07572498,62.74,83.83,144,0
FRLM,12/14/93,68.74527778,5.266978134,59.33,78.52,144,0
FRLM,12/15/93,73.51180556,10.93196376,34.39,82.62,144,0
FRLM,12/16/93,33.15388889,1.746210327,30.4,37.52,144,0
FRLM,12/17/93,40.61770833,10.15384227,24.2,67.72,144,0
FRLM,12/18/93,57.36659722,8.012015728,43,76.68,144,0
FRLM,12/19/93,64.49944444,8.727745628,47.9,84.24,144,0
FRLM,12/20/93,93.441875,4.945727261,69.3,97.48,144,0
FRLM,12/21/93,98.50423611,1.046276501,96.26,99.99,144,17
FRLM,12/22/93,84.49402778,14.92418717,49.6,99.99,144,20
FRLM,12/23/93,83.32375,6.829741814,62.12,93.8,144,0
FRLM,12/24/93,71.18736111,8.646460773,57.91,91.52,144,0
FRLM,12/25/93,74.66923611,4.358401433,59.87,83.46,144,0
FRLM,12/26/93,61.72770833,8.904193066,40.39,77.75,144,0
FRLM,12/27/93,68.16506944,8.141491332,47.68,78.04,144,0
FRLM,12/28/93,85.09819444,8.254297601,69.12,98.34,144,0
FRLM,12/29/93,77.95763889,5.13322783,69.05,86.62,144,0
FRLM,12/30/93,53.57875,6.584061798,32.2,74.08,144,0
FRLM,12/31/93,51.63444444,2.416613471,47.9,57.66,144,0
FRLM,1/1/94,54.32756944,2.866162183,48.3,59.72,144,0
FRLM,1/2/94,51.20833333,6.731571581,36.9,71.8,144,0
FRLM,1/3/94,66.77486111,9.443666319,57.38,92.04,144,0
FRLM,1/4/94,78.22875,11.83293897,63.2,95.32,144,0
FRLM,1/5/94,84.46333333,6.323855379,66,94.77,144,0
FRLM,1/6/94,92.67328767,3.228223219,88.5,98.29,73,0
FRLM,1/7/94,50.60224138,9.714450268,45.3,88.69,58,0
FRLM,1/8/94,56.76576389,7.109807821,44.6,74.22,144,0
FRLM,1/9/94,52.9075,6.163862823,41.5,68.68,144,0
FRLM,1/10/94,44.97819444,5.470361164,27.2,54.22,144,0
FRLM,1/11/94,55.14534722,3.815375943,40.1,59.91,144,0
FRLM,1/12/94,41.04170455,3.438455688,31.3,51.32,88,0
FRLM,1/13/94,49.0825,7.023185582,41.8,60.21,8,0
FRLM,1/14/94,46.01625,5.231751789,36,53.37,8,0
FRLM,1/15/94,45.33625,8.500796496,32.8,56.22,8,0
FRLM,1/16/94,83.25375,9.278662061,63.53,91.55,8,0
FRLM,1/17/94,82.95125,9.377744836,70.66,96.41,8,0
FRLM,1/18/94,72.655,6.967085884,66.98,86.24,8,0
FRLM,1/19/94,68.7275,13.40994807,54.71,87.75,8,0
FRLM,1/20/94,53.9275,2.764017521,50.03,58.65,8,0
FRLM,1/21/94,57.8275,5.771109698,49.87,67.37,8,0
FRLM,1/22/94,53.67625,2.143374759,50.24,56.2,8,0
FRLM,1/23/94,52.80125,13.57802788,40.7,83.64,8,0
FRLM,1/24/94,69.19,11.23261069,48.8,82.01,8,0
FRLM,1/25/94,66.91875,5.441552923,58.25,72.85,8,0
FRLM,1/26/94,67.16375,6.741818189,59.51,77.6,8,0
FRLM,1/27/94,62.2525,10.97649144,41.73,74.82,8,0
FRLM,1/28/94,64.54375,7.531757407,57.48,76.32,8,0
FRLM,1/29/94,86.35625,4.997170449,74.58,90.34,8,0
FRLM,1/30/94,79.62375,8.679114401,64.94,89.17,8,0
FRLM,1/31/94,67.54,8.171235262,60.48,79.37,8,0
FRLM,2/1/94,77.8125,9.199053911,64.94,89.42,8,0
FRLM,2/2/94,59.04125,10.43674339,47.41,72.32,8,0
FRLM,2/3/94,86.3925,8.650135837,69.53,94.52,8,0
FRLM,2/4/94,72.86625,7.691093063,63.81,83.93,8,0
FRLM,2/5/94,81.5975,11.50382887,68.03,96.24,8,0
FRLM,2/6/94,97.3325,1.950155671,93.63,99.99,8,1
FRLM,2/7/94,86.05875,11.12786263,72.69,99.99,8,2
FRLM,2/8/94,76.9625,17.99003117,57.15,99.99,8,1
FRLM,2/9/94,65.49375,16.20319099,49.69,92.17,8,0
FRLM,2/10/94,82.15375,9.858255333,68.29,93.12,8,0
FRLM,2/11/94,84.0525,11.87691368,70.06,99.99,8,1
FRLM,2/12/94,87.93125,9.631704251,73.57,98.86,8,0
FRLM,2/13/94,67.2825,24.15846894,46.55,98.65,8,0
FRLM,2/14/94,61.67875,8.303012255,49.82,78.5,8,0
FRLM,2/15/94,79.1375,14.95786917,61.56,97.96,8,0
FRLM,2/16/94,62.3525,8.036768629,46.68,71.83,8,0
FRLM,2/17/94,61.245,15.13244952,46.15,83.38,8,0
FRLM,2/18/94,70.41125,13.07817859,56.96,90.86,8,0
FRLM,2/19/94,88.63375,3.867147112,82.27,94.35,8,0
FRLM,2/20/94,85.2325,9.95312119,74.66,97.68,8,0
FRLM,2/21/94,88.11625,9.231546748,73.84,97.17,8,0
FRLM,2/22/94,67.88,12.69742831,55.28,96.82,8,0
FRLM,2/23/94,59.93125,9.408395092,52.26,80.09,8,0
FRLM,2/24/94,78.56125,12.74080558,61.61,94.43,8,0
FRLM,2/25/94,78.5625,10.74946743,64.76,91.64,8,0
FRLM,2/26/94,76.91625,10.76760742,62.99,89.92,8,0
FRLM,2/27/94,78.58625,10.30002904,64.18,90.67,8,0
FRLM,2/28/94,74.2325,12.52626241,57.61,87.68,8,0
FRLM,3/1/94,75.57875,10.3513787,63.34,87.4,8,0
FRLM,3/2/94,76.35,8.516090652,64,86.08,8,0
FRLM,3/3/94,75.89125,8.370146675,64.44,84.37,8,0
FRLM,3/4/94,79.7175,6.124642847,71.27,86.91,8,0
FRLM,3/5/94,80.85875,4.595952995,72.99,86.07,8,0
FRLM,3/6/94,81.56875,4.425795933,75.63,86.66,8,0
FRLM,3/7/94,76.9525,5.500872009,68.15,83.15,8,0
FRLM,3/8/94,78.65,6.679103875,67.93,85.33,8,0
FRLM,3/9/94,84.90375,3.074610022,80.74,89.24,8,0
FRLM,3/10/94,82.00375,11.44323872,63.54,93.3,8,0
FRLM,3/11/94,92.68375,2.640767948,88.92,95.2,8,0
FRLM,3/12/94,88.11625,6.531602161,73.83,95.38,8,0
FRLM,3/13/94,94.1475,1.17308811,92.92,95.98,8,0
FRLM,3/14/94,91.41875,1.84109003,87.33,93.58,8,0
FRLM,3/15/94,79.29,11.80296089,67.72,93.81,8,0
FRLM,3/16/94,64.29,10.83217825,52.43,82.73,8,0
FRLM,3/17/94,80.80375,5.914591974,71.53,86.23,8,0
FRLM,3/18/94,65.48375,11.97593293,47.15,85.69,8,0
FRLM,3/19/94,60.1175,14.08152361,48.32,85.53,8,0
FRLM,3/20/94,84.71875,1.955318297,81.42,87.22,8,0
FRLM,3/21/94,85.54,2.110619408,81.72,87.81,8,0
FRLM,3/22/94,82.92125,4.014162206,76.44,87.05,8,0
FRLM,3/23/94,79.89875,4.534809612,71.06,83.75,8,0
FRLM,3/24/94,81.5375,1.818898803,78.19,83,8,0
FRLM,3/25/94,81.2675,1.763014869,78.22,83.05,8,0
FRLM,3/26/94,82.40625,8.297978992,62.46,87.99,8,0
FRLM,3/27/94,73.61,15.4389674,50.54,88.47,8,0
FRLM,3/28/94,60.8675,13.49589329,47.47,77.27,8,0
FRLM,3/29/94,72.88375,11.13873157,57.64,87.98,8,0
FRLM,3/30/94,86.53625,2.017529872,82.59,88.76,8,0
FRLM,3/31/94,83.4425,2.559295383,80.3,86.49,8,0
FRLM,4/1/94,80.60375,6.839145597,64.44,85.53,8,0
FRLM,4/2/94,61.56,18.7989749,39.8,85.9,8,0
FRLM,4/3/94,86.25,1.856017241,83.22,88.44,8,0
FRLM,4/4/94,72.4125,23.92597975,31.69,87.05,8,0
FRLM,4/5/94,63.24375,26.91722653,31.44,87.72,8,0
FRLM,4/6/94,81.08125,6.019709147,71.12,86.82,8,0
FRLM,4/7/94,61.58375,22.25121309,38.96,84.58,8,0
FRLM,4/8/94,79.375,10.98717304,57.37,92.91,8,0
FRLM,4/9/94,97.31875,0.620470731,95.98,97.81,8,0
FRLM,4/10/94,85.735,14.75358165,56.04,97.58,8,0
FRLM,4/11/94,55.1025,13.64449313,43.13,77.7,8,0
FRLM,4/12/94,83.3175,1.820845565,81.26,87.12,8,0
FRLM,4/13/94,87.8275,1.862254778,84.43,89.72,8,0
FRLM,4/14/94,90.42375,0.545944463,89.52,91.32,8,0
FRLM,4/15/94,90.84375,1.333726653,89.25,92.69,8,0
FRLM,4/16/94,88.51625,1.391606856,85.25,89.67,8,0
FRLM,4/17/94,59.0625,22.84140711,39.51,89.4,8,0
FRLM,4/18/94,69.7575,27.88491336,36.64,96.53,8,0
FRLM,4/19/94,95.775,1.788766534,91.49,97.17,8,0
FRLM,4/20/94,92.36375,5.521185011,81.76,98.35,8,0
FRLM,4/21/94,93.57375,0.543084774,93.19,94.83,8,0
FRLM,4/22/94,93.32875,0.231913623,92.94,93.6,8,0
FRLM,4/23/94,92.84875,0.533678274,92.01,93.35,8,0
FRLM,4/24/94,91.51125,0.461408945,90.95,92.26,8,0
FRLM,4/25/94,91.62625,0.655219429,90.7,92.69,8,0
FRLM,4/26/94,86.23875,9.724159071,64.21,91.18,8,0
FRLM,4/27/94,79.955,3.690578739,71.32,82.84,8,0
FRLM,4/28/94,82.35125,0.970161069,80.8,83.61,8,0
FRLM,4/29/94,85.97625,3.306400449,78.67,88.45,8,0
FRLM,4/30/94,79.41875,3.905320318,74.7,84.97,8,0
FRLM,5/1/94,85.32875,0.87262228,84.17,86.65,8,0
FRLM,5/2/94,78.61125,12.45034875,52.22,85.31,8,0
FRLM,5/3/94,81.4425,5.627833255,71.28,86.67,8,0
FRLM,5/4/94,76.405,8.665620083,58.22,82.47,8,0
FRLM,5/5/94,85.10875,1.127873315,83,86.4,8,0
FRLM,5/6/94,62.215,15.96847788,40.03,81.16,8,0
FRLM,5/7/94,91.1375,3.241365453,86.49,95.06,8,0
FRLM,5/8/94,93.00375,1.933818853,90.56,95.16,8,0
FRLM,5/9/94,90.25625,0.32319554,89.64,90.57,8,0
FRLM,5/10/94,89.54375,0.265272771,89.09,90,8,0
FRLM,5/11/94,89.25375,0.116243279,89.08,89.39,8,0
FRLM,5/12/94,89.53875,0.473933012,88.9,90.22,8,0
FRLM,5/13/94,86.7575,1.747134388,84.5,88.9,8,0
FRLM,5/14/94,82.74875,0.878008095,81.64,84.14,8,0
FRLM,5/15/94,85.95125,2.287409249,81.92,87.83,8,0
FRLM,5/16/94,88.24875,0.469298489,87.8,89.09,8,0
FRLM,5/17/94,87.28,1.66079155,84.66,89.13,8,0
FRLM,5/18/94,82.685,0.746209469,81.9,83.92,8,0
FRLM,5/19/94,82.895,2.238749651,80.05,86.58,8,0
FRLM,5/20/94,80.38125,12.31475356,55.99,89.63,8,0
FRLM,5/21/94,49.76875,4.528870681,43.16,54.64,8,0
FRLM,5/22/94,65.60375,12.26466345,49.04,77.96,8,0
FRLM,5/23/94,72.8775,9.3039097,55.82,83.03,8,0
FRLM,5/24/94,79.0075,0.923111973,77.52,80.09,8,0
FRLM,5/25/94,76.20125,0.455707848,75.62,77.03,8,0
FRLM,5/26/94,51.35375,18.02283071,37.06,77.47,8,0
FRLM,5/27/94,84.95125,1.440688699,81.77,86.56,8,0
FRLM,5/28/94,71.57625,15.49906074,47.2,84.31,8,0
FRLM,5/29/94,80.97875,1.50216451,78.19,83.16,8,0
FRLM,5/30/94,81.5025,3.094076137,75.85,83.85,8,0
FRLM,5/31/94,84.03,0.801890623,82.96,85.47,8,0
FRLM,6/1/94,83.555,1.621947683,79.77,84.73,8,0
FRLM,6/2/94,84.3425,0.980870605,82.69,85.83,8,0
FRLM,6/3/94,80.03375,2.216038534,77.51,83.33,8,0
FRLM,6/4/94,82.69375,2.773254599,77.92,85.05,8,0
FRLM,6/5/94,78.94625,9.06852002,63.97,85.57,8,0
FRLM,6/6/94,55.57625,16.96788053,36.64,83.95,8,0
FRLM,6/7/94,33.16375,1.724950827,31.4,36.2,8,0
FRLM,6/8/94,34.82125,0.812604938,33.65,36.24,8,0
FRLM,6/9/94,35.07625,1.410753978,33.21,36.83,8,0
FRLM,6/10/94,40.83125,13.29958908,34.21,73.57,8,0
FRLM,6/11/94,68.32625,18.20192371,41,87.42,8,0
FRLM,6/12/94,77.10375,4.501694721,69.54,82.21,8,0
FRLM,6/13/94,83.225,1.188588599,82.11,85.27,8,0
FRLM,6/14/94,83.9075,1.27574908,82.13,85.42,8,0
FRLM,6/15/94,80.82125,0.622998223,80.11,81.76,8,0
FRLM,6/16/94,83.52,3.530896284,79.99,89.85,8,0
FRLM,6/17/94,90.61375,1.177975715,88.95,92.39,8,0
FRLM,6/18/94,77.37375,23.54661331,40.24,96.93,8,0
FRLM,6/19/94,93.03625,2.008012077,90.91,96.51,8,0
FRLM,6/20/94,76.6775,23.60288224,38.61,90.77,8,0
FRLM,6/21/94,59.19125,15.49118684,39.62,74.13,8,0
FRLM,6/22/94,76.79875,1.181191136,74.01,77.58,8,0
FRLM,6/23/94,76.88125,0.304463814,76.45,77.24,8,0
FRLM,6/24/94,75.785,0.294957624,75.38,76.28,8,0
FRLM,6/25/94,66.01875,11.36772931,47.46,75.48,8,0
FRLM,6/26/94,78.3675,5.954294369,64.95,82.9,8,0
FRLM,6/27/94,81.9275,1.285843248,80.75,84.2,8,0
FRLM,6/28/94,86.80125,2.274764902,81.93,88.94,8,0
FRLM,6/29/94,88.00125,0.261175229,87.57,88.36,8,0
FRLM,6/30/94,86.5325,0.497443464,86.07,87.41,8,0
FRLM,7/1/94,75.5375,18.55278859,39.53,86.46,8,0
FRLM,7/2/94,69.66625,11.99572535,44.78,79.82,8,0
FRLM,7/3/94,83.17625,4.595003303,72.79,86.42,8,0
FRLM,7/4/94,75.20125,14.24287736,45.29,84.43,8,0
FRLM,7/5/94,83.7075,0.489190293,82.79,84.23,8,0
FRLM,7/6/94,82.0825,0.334055171,81.57,82.44,8,0
FRLM,7/7/94,82.89375,0.203676038,82.59,83.31,8,0
FRLM,7/8/94,83.05125,0.509942224,82.44,83.69,8,0
FRLM,7/9/94,82.56,0.201494417,82.25,82.87,8,0
FRLM,7/10/94,81.84125,2.093905698,78.16,83.78,8,0
FRLM,7/11/94,76.31,0.880113629,75.33,77.86,8,0
FRLM,7/12/94,76.62125,1.234173379,75.31,78.21,8,0
FRLM,7/13/94,78.295,1.498904362,77.03,81.24,8,0
FRLM,7/14/94,42.2725,6.585533388,35.47,51.74,8,0
FRLM,7/15/94,46.18625,4.769683839,39.98,52.98,8,0
FRLM,7/16/94,75.88125,21.21295119,50.22,96.74,8,0
FRLM,7/17/94,95.55375,0.621494455,94.93,96.72,8,0
FRLM,7/18/94,75.875,26.10746855,40.64,94.88,8,0
FRLM,7/19/94,71.2825,9.826664526,49.64,77.66,8,0
FRLM,7/20/94,81.6825,2.220989162,78.13,84.37,8,0
FRLM,7/21/94,84.24875,0.311009302,83.73,84.65,8,0
FRLM,7/22/94,81.54625,1.495449646,80.13,83.73,8,0
FRLM,7/23/94,74.56875,5.148032738,64.71,78.98,8,0
FRLM,7/24/94,58.99125,8.813859925,46.62,73.42,8,0
FRLM,7/25/94,77.0275,2.481979337,71.47,79.04,8,0
FRLM,7/26/94,76.82875,0.915742283,75.51,78.03,8,0
FRLM,7/27/94,75.24,0.44667022,74.66,76.04,8,0
FRLM,7/28/94,52.49125,18.64288791,25.59,76.02,8,0
FRLM,7/29/94,44.31,21.26624018,25.18,79.67,8,0
FRLM,7/30/94,79.6275,1.341936234,77.43,81.19,8,0
FRLM,7/31/94,80.9775,0.472916483,80.13,81.59,8,0
FRLM,8/1/94,56.94,19.63992872,39.31,80.34,8,0
FRLM,8/2/94,40.7875,0.835168931,39.56,42.09,8,0
FRLM,8/3/94,71.39125,15.45313693,38.96,81.57,8,0
FRLM,8/4/94,78.4825,1.376680791,76.58,80.48,8,0
FRLM,8/5/94,75.38875,0.588058245,74.54,76.23,8,0
FRLM,8/6/94,73.9725,0.315990506,73.54,74.48,8,0
FRLM,8/7/94,48.22875,10.40566527,36.88,68.62,8,0
FRLM,8/8/94,52.88875,10.82411783,41.37,68.91,8,0
FRLM,8/9/94,76.9925,4.530363435,71.56,82.51,8,0
FRLM,8/10/94,77.28875,1.819336123,75.19,80.24,8,0
FRLM,8/11/94,74.845,0.087993506,74.73,75,8,0
FRLM,8/12/94,73.9475,0.424928565,73.3,74.5,8,0
FRLM,8/13/94,74.25375,0.68891089,73.38,75.4,8,0
FRLM,8/14/94,72.695,0.338103957,72.27,73.28,8,0
FRLM,8/15/94,72.265,0.282590061,72.08,72.95,8,0
FRLM,8/16/94,73.11125,0.298062194,72.74,73.5,8,0
FRLM,8/17/94,72.8,0.376828874,72.32,73.38,8,0
FRLM,8/18/94,72.1225,0.092079158,71.97,72.28,8,0
FRLM,8/19/94,72.79125,0.728902061,71.94,73.68,8,0
FRLM,8/20/94,72.2775,0.148588598,72.13,72.59,8,0
FRLM,8/21/94,72.0925,0.201547584,71.87,72.4,8,0
FRLM,8/22/94,73.02,0.6223917,72.14,73.65,8,0
FRLM,8/23/94,72.915,0.589406481,72.32,74.04,8,0
FRLM,8/24/94,71.935,0.132772631,71.77,72.12,8,0
FRLM,8/25/94,58.125,13.73765836,40.29,74.56,8,0
FRLM,8/26/94,84.59125,4.155170402,74.38,87.19,8,0
FRLM,8/27/94,85.8525,0.257723551,85.59,86.35,8,0
FRLM,8/28/94,57.115,14.88577749,43.91,79.72,8,0
FRLM,8/29/94,46.345,17.85797541,35.26,81.04,8,0
FRLM,8/30/94,55.33625,22.46118553,34.65,87.35,8,0
FRLM,8/31/94,82.04875,16.8804159,42.39,92.51,8,0
FRLM,9/1/94,65.73375,25.3408439,39.42,92.79,8,0
FRLM,9/2/94,77.94,4.874584231,66.72,80.76,8,0
FRLM,9/3/94,81.46875,5.569322702,74.28,87.38,8,0
FRLM,9/4/94,86.665,1.063108649,85.57,88.01,8,0
FRLM,9/5/94,85.46625,0.25522749,85.04,85.71,8,0
FRLM,9/6/94,83.63,1.459520469,81.77,85.66,8,0
FRLM,9/7/94,68.15375,13.71782254,38.66,77.46,8,0
FRLM,9/8/94,71.1725,16.64050115,30.68,79.28,8,0
FRLM,9/9/94,83.00625,0.831211465,81.22,83.82,8,0
FRLM,9/10/94,81.4875,2.606282245,76.81,83.83,8,0
FRLM,9/11/94,83.245,1.148104027,80.84,84.24,8,0
FRLM,9/12/94,82.595,0.47644517,82.07,83.41,8,0
FRLM,9/13/94,79.60875,1.216686807,77.6,81.07,8,0
FRLM,9/14/94,78.94625,0.978875995,76.98,80.15,8,0
FRLM,9/15/94,78.04,2.948670403,70.91,79.65,8,0
FRLM,9/16/94,65.27375,4.695222306,56.56,72.75,8,0
FRLM,9/17/94,72.5025,2.862155781,67.84,75.53,8,0
FRLM,9/18/94,72.00125,1.636262619,68.9,74.34,8,0
FRLM,9/19/94,72.50875,2.04029716,68.63,74.45,8,0
FRLM,9/20/94,72.52,1.925371949,68.68,74.14,8,0
FRLM,9/21/94,74.04,1.759772713,70.88,75.76,8,0
FRLM,9/22/94,73.89,4.075494711,66.14,78.05,8,0
FRLM,9/23/94,73.9025,4.085779345,66.91,77.95,8,0
FRLM,9/24/94,74.1225,3.866876739,68.04,78.12,8,0
FRLM,9/25/94,75.54125,4.429587009,68.44,80.41,8,0
FRLM,9/26/94,79.52125,3.166784929,74.7,83.77,8,0
FRLM,9/27/94,80.1475,3.661423416,72.92,83.64,8,0
FRLM,9/28/94,58.08,21.34571419,37.95,82.61,8,0
FRLM,9/29/94,61.18,9.816401727,47.91,72.55,8,0
FRLM,9/30/94,72.0425,4.874902929,65.53,77.89,8,0
FRLM,10/1/94,48.715,9.983364735,32.83,64.06,8,0
FRLM,10/2/94,52.7275,22.7540199,30.73,91.16,8,0
FRLM,10/3/94,82.935,11.57002902,64.47,93.64,8,0
FRLM,10/4/94,78.32625,10.44768318,62.24,90.77,8,0
FRLM,10/5/94,57.2825,25.35567378,30.81,86.85,8,0
FRLM,10/6/94,52.13125,16.42448646,33.45,83.52,8,0
FRLM,10/7/94,79.51625,7.918883286,70.86,95.62,8,0
FRLM,10/8/94,70.5925,14.32546758,37.69,83.54,8,0
FRLM,10/9/94,41.73625,9.130150895,34.89,58.27,8,0
FRLM,10/10/94,51.07375,9.372508336,35.64,61.53,8,0
FRLM,10/11/94,69.63625,4.936638352,63.01,79.69,8,0
FRLM,10/12/94,84.03,3.420826968,77.61,88.71,8,0
FRLM,10/13/94,84.2475,2.712188099,81.11,87.51,8,0
FRLM,10/14/94,77.53875,9.120107201,65.77,87.33,8,0
FRLM,10/15/94,79.71,7.008710907,69.94,87.92,8,0
FRLM,10/16/94,75.69625,7.944410322,65.66,85.8,8,0
FRLM,10/17/94,77.00375,5.22807787,68.74,82.73,8,0
FRLM,10/18/94,82.0425,4.276947343,74.12,87.15,8,0
FRLM,10/19/94,85.80125,7.22312247,76.24,94.39,8,0
FRLM,10/20/94,50.95875,18.19869888,35.33,81.08,8,0
FRLM,10/21/94,92.8725,4.887265522,84.63,96.92,8,0
FRLM,10/22/94,90.42875,7.087204642,80.87,98.9,8,0
FRLM,10/23/94,91.73375,2.968063041,87.27,95.15,8,0
FRLM,10/24/94,87.62125,8.521387274,73.12,96.19,8,0
FRLM,10/25/94,80.2025,11.6203513,66.09,95.57,8,0
FRLM,10/26/94,78.735,8.963723716,68.97,89.71,8,0
FRLM,10/27/94,81.07,5.484461166,73.2,87.38,8,0
FRLM,10/28/94,74.70875,12.39077011,58.99,90.82,8,0
FRLM,10/29/94,72.8525,15.44275119,49.25,90.94,8,0
FRLM,10/30/94,75.295,8.897749314,55.31,82.86,8,0
FRLM,10/31/94,61.4275,11.98990736,48.32,78.89,8,0
FRLM,11/1/94,67.365,8.320824135,60.2,81.61,8,0
FRLM,11/2/94,68.59375,24.17336015,34.96,95,8,0
FRLM,11/3/94,67.57625,22.35823462,37,95.74,8,0
FRLM,11/4/94,40.4375,5.803333402,32.9,49.83,8,0
FRLM,11/5/94,47.45125,19.47225164,31.26,72.6,8,0
FRLM,11/6/94,74.365,6.796658843,65.15,86.58,8,0
FRLM,11/7/94,63.21375,13.39865019,50.64,83.92,8,0
FRLM,11/8/94,43.36125,7.624564507,34.5,58.74,8,0
FRLM,11/9/94,71.365,8.200527858,58.41,81.15,8,0
FRLM,11/10/94,64.94,10.90387218,54.69,82.94,8,0
FRLM,11/11/94,62.03375,5.914398744,56.38,72.56,8,0
FRLM,11/12/94,57.9325,2.89413076,53.51,61.96,8,0
FRLM,11/13/94,58.36125,3.678001932,53.35,63.95,8,0
FRLM,11/14/94,67.17625,8.426054724,57.26,79.3,8,0
FRLM,11/15/94,83.57375,4.607351075,77.14,88.69,8,0
FRLM,11/16/94,68.80875,7.055960879,62.12,80.21,8,0
FRLM,11/17/94,62.66125,4.74328228,56.06,68.98,8,0
FRLM,11/18/94,75.48375,9.476810701,62.28,85.62,8,0
FRLM,11/19/94,73.71875,8.613705752,63.4,87,8,0
FRLM,11/20/94,63.68875,4.927982599,56.49,70.61,8,0
FRLM,11/21/94,72.13875,8.402973007,63.7,86.82,8,0
FRLM,11/22/94,78.91125,7.83205581,68.88,89.32,8,0
FRLM,11/23/94,71.74625,7.621613885,60.97,81.15,8,0
FRLM,11/24/94,73.7975,12.27495912,58.61,84.7,8,0
FRLM,11/25/94,69.54625,12.31255798,56.12,87.89,8,0
FRLM,11/26/94,77.545,6.285636688,66.75,84.93,8,0
FRLM,11/27/94,74.24625,6.971410879,64.42,87.4,8,0
FRLM,11/28/94,79.54827586,3.306184755,66.59,83.22,29,4
FRLM,11/29/94,72.43458333,5.218435613,61.92,78.6,72,0
FRLM,11/30/94,60.10611111,4.557365979,54.39,75.21,72,0
FRLM,12/1/94,57.23958333,4.285600337,49.32,67.47,72,0
FRLM,12/2/94,58.97236111,2.562192334,55.2,65.51,72,0
FRLM,12/3/94,54.49041667,2.286601782,50.28,59.59,72,0
FRLM,12/4/94,73.97138889,6.789172678,56.83,84.92,72,0
FRLM,12/5/94,62.41736111,9.002396237,47.19,81.8,72,0
FRLM,12/6/94,54.31208333,4.645717682,44.05,62.27,72,0
FRLM,12/7/94,46.88208333,3.15793565,30.63,49.43,72,0
FRLM,12/8/94,48.79680556,2.244390081,41.32,53.4,72,0
FRLM,12/9/94,43.50527778,4.763517452,32.5,54.24,72,0
FRLM,12/10/94,40.46277778,3.1675926,33.4,46.62,72,0
FRLM,12/11/94,42.05638889,3.812004502,32.71,47.57,72,0
FRLM,12/12/94,41.42763889,7.606828566,30.3,59.52,72,0
FRLM,12/13/94,51.43569444,18.86235709,25,82.21,72,0
FRLM,12/14/94,87.08958333,6.216801505,76.18,95.01,72,0
FRLM,12/15/94,82.68833333,4.916792725,72.3,90.55,72,0
FRLM,12/16/94,88.83527778,8.066616823,66.7,97.18,72,0
FRLM,12/17/94,78.24888889,9.656067866,61.55,92.23,72,0
FRLM,12/18/94,85.64319444,4.323882197,80.03,94.05,72,0
FRLM,12/19/94,83.30875,6.582021809,70.8,94.89,72,0
FRLM,12/20/94,74.19597222,8.920780244,60.55,91.97,72,0
FRLM,12/21/94,77.57263889,12.73911632,55.56,94.36,72,0
FRLM,12/22/94,65.94763889,10.43783077,49.29,87.17,72,0
FRLM,12/23/94,75.23722222,8.532438719,65.9,87.57,72,0
FRLM,12/24/94,68.0075,6.297678255,57.65,81.73,72,0
FRLM,12/25/94,64.81277778,6.383821369,48.06,78.33,72,0
FRLM,12/26/94,51.58875,4.127141676,40.16,59.9,72,0
FRLM,12/27/94,42.22263889,8.381744582,27.2,53.68,72,0
FRLM,12/28/94,55.55791667,8.256238433,41.85,81.96,72,0
FRLM,12/29/94,48.80569444,9.3531811,27.5,68.71,72,0
FRLM,12/30/94,51.77583333,9.019656898,40.2,70.26,72,0
FRLM,12/31/94,68.14611111,8.230115354,48.8,78.67,72,0
FRLM,1/1/95,57.88,6.754159699,47.6,74.44,72,0
FRLM,1/2/95,67.51916667,15.29553223,50,91.55,72,0
FRLM,1/3/95,90.79569444,2.322769611,87.25,95.36,72,0
FRLM,1/4/95,69.29388889,9.4882732,51.15,86.83,72,0
FRLM,1/5/95,58.66680556,6.227253329,46.52,71.09,72,0
FRLM,1/6/95,80.50666667,10.96258708,49.39,93.92,72,0
FRLM,1/7/95,75.09486111,11.71899385,55.59,91.58,72,0
FRLM,1/8/95,46.12958333,6.922762096,29.6,57.54,72,0
FRLM,1/9/95,54.01736111,11.11826083,38.1,72.7,72,0
FRLM,1/10/95,49.24569444,9.037176087,25.7,67.79,72,0
FRLM,1/11/95,57.74753623,11.24823573,41,76.44,69,0
FRLM,1/12/95,78.50055556,5.521380438,70.61,90.6,72,0
FRLM,1/13/95,78.88541667,5.999935431,67.27,93.7,72,0
FRLM,1/14/95,72.64347222,9.082770124,56.36,87.36,72,0
FRLM,1/15/95,75.08333333,6.690693979,56.4,83.91,72,0
FRLM,1/16/95,61.28763889,10.47521965,48.18,81.58,72,0
FRLM,1/17/95,49.82041667,1.621639266,46.7,53.71,72,0
FRLM,1/18/95,70.07625,11.05466257,51.16,83.8,72,0
FRLM,1/19/95,79.74097222,7.344382765,56.29,89.12,72,0
FRLM,1/20/95,77.42875,8.668148419,59.17,93.94,72,0
FRLM,1/21/95,55.53208333,9.83278648,44.2,74.85,72,0
FRLM,1/22/95,51.02819444,5.37531141,44.81,69.06,72,0
FRLM,1/23/95,66.08541667,3.214547451,58.43,73.94,72,0
FRLM,1/24/95,72.0075,3.260898412,66.3,88.32,72,0
FRLM,1/25/95,70.90791667,17.60654199,43.29,95.48,72,0
FRLM,1/26/95,72.47916667,6.590923283,58.29,81.31,72,0
FRLM,1/27/95,64.53041667,17.36849734,42.25,87.52,72,0
FRLM,1/28/95,71.82847222,11.48131595,50.27,91.04,72,0
FRLM,1/29/95,66.27555556,8.998003517,56.05,84.67,72,0
FRLM,1/30/95,63.92805556,4.459703975,52.9,74.38,72,0
FRLM,1/31/95,65.40597222,5.44239194,54.67,75.14,72,0
FRLM,2/1/95,28.50902778,4.413727676,22.86,53.96,72,0
FRLM,2/2/95,28.44555556,7.073925716,21.59,44.63,72,0
FRLM,2/3/95,61.19347222,9.280074696,30.28,73.07,72,0
FRLM,2/4/95,59.03138889,5.37968042,47.45,72.63,72,0
FRLM,2/5/95,50.04736111,20.95885117,27.73,79.44,72,0
FRLM,2/6/95,32.64819444,6.108719311,27.85,51.25,72,0
FRLM,2/7/95,54.89791667,12.18155046,37.16,76.06,72,0
FRLM,2/8/95,71.83361111,8.012701063,56.18,88.21,72,0
FRLM,2/9/95,61.49861111,10.4786915,33.07,84.96,72,0
FRLM,2/10/95,66.14430556,5.78770183,53.76,85.36,72,0
FRLM,2/11/95,77.84222222,9.881262995,60.79,89.02,72,0
FRLM,2/12/95,68.795,13.05140433,45.46,90.05,72,0
FRLM,2/13/95,55.70736111,12.86831155,37.26,80.24,72,0
FRLM,2/14/95,76.6375,9.634418896,55.41,90.72,72,0
FRLM,2/15/95,75.31888889,11.10860415,53.17,92.69,72,0
FRLM,2/16/95,71.58652778,12.0042962,49.82,90.72,72,0
FRLM,2/17/95,71.41847222,5.172971919,60.3,78.6,72,0
FRLM,2/18/95,67.30166667,14.40851528,44.66,90.39,72,0
FRLM,2/19/95,59.42055556,19.95600174,31.33,90.86,72,0
FRLM,2/20/95,60.35875,10.40564053,36.07,80.88,72,0
FRLM,2/21/95,45.79777778,8.125298906,33.82,59.98,72,0
FRLM,2/22/95,74.98111111,13.97820996,53.12,92.32,72,0
FRLM,2/23/95,83.3825,12.70297578,45.67,97.52,72,0
FRLM,2/24/95,94.81861111,2.424666265,83.04,98.58,72,0
FRLM,2/25/95,86.44055556,9.580897351,61.35,98.55,72,0
FRLM,2/26/95,80.23930556,10.85897997,58.37,96.95,72,0
FRLM,2/27/95,98.33625,0.854082883,96.57,99.55,72,0
FRLM,2/28/95,96.14597222,3.006932675,89.69,99.65,72,0
FRLM,3/1/95,75.90944444,18.33143662,40.78,99.99,72,2
FRLM,3/2/95,83.71777778,11.85809942,60.04,98.45,72,0
FRLM,3/3/95,70.93027778,13.83519903,52.49,88.97,72,0
FRLM,3/4/95,86.25958333,7.951988225,61.55,92.86,72,0
FRLM,3/5/95,86.23944444,10.36301398,56.89,95.35,72,0
FRLM,3/6/95,70.49180556,9.119859668,52.34,85.91,72,0
FRLM,3/7/95,71.09722222,10.86055989,52.11,89.69,72,0
FRLM,3/8/95,86.25388889,3.363230571,75.11,89.81,72,0
FRLM,3/9/95,89.65930556,3.119791581,83.55,94.19,72,0
FRLM,3/10/95,92.18055556,5.065861129,79.89,97.08,72,0
FRLM,3/11/95,92.12291667,3.542554755,83.63,97.08,72,0
FRLM,3/12/95,88.65430556,5.495636381,79.35,95.41,72,0
FRLM,3/13/95,86.16263889,5.332521004,76.21,92.07,72,0
FRLM,3/14/95,85.58402778,5.140325429,71.34,90.88,72,0
FRLM,3/15/95,86.765,3.108867825,79.06,89.88,72,0
FRLM,3/16/95,75.71652778,10.75081316,54.33,90.67,72,0
FRLM,3/17/95,80.5775,13.34689833,56.82,92.74,72,0
FRLM,3/18/95,72.8775,8.103720542,51.47,92.31,72,0